Location: Newark
(3.3223°N, 76.2348°W)
Time: 00:20:59
(UTC+00:00)

BEESAT 2 - Pass Details

Date: 22 January 2020
Orbit: 493 x 534 km, 64.9° (Epoch: 24 February)

Event Time Altitude Azimuth Distance (km) Brightness Sun altitude
Rises 01:16:02 0° 206° (SSW) 2,585 ? -29.2°
Reaches altitude 10° 01:18:11 10° 208° (SSW) 1,706 ? -29.7°
Enters shadow 01:19:22 19° 211° (SSW) 1,236 ? -30.0°
